PGT2030 LTFJ-LTAI

Flight info

Callsign PGT2030
Flight time N/A
Altitude 37000
Route ROXUK1K/24R ROXUK UN617 ERVAG UT305 TEKDO UT35 BABSA
Aircraft A20N/M-SDE2E3FGHIRWXY/LB1

Departure

Time 2026-05-05 11:22
Airport Istanbul Sabiha Gökçen International Airport (LTFJ)

Arrival

Time N/A
Airport Antalya International Airport (LTAI)
Time Latitude Longitude Altitude Speed Heading
2026-05-05 10:37 40.90487 29.31774 321 ft 0 kts 153°
2026-05-05 11:06 40.90498 29.31765 321 ft 2 kts 149°
2026-05-05 11:07 40.90509 29.31758 321 ft 0 kts 154°
2026-05-05 11:07 40.90520 29.31750 321 ft 2 kts 137°
2026-05-05 11:07 40.90530 29.31735 321 ft 2 kts 122°
2026-05-05 11:07 40.90536 29.31717 321 ft 2 kts 105°
2026-05-05 11:08 40.90538 29.31698 321 ft 2 kts 88°
2026-05-05 11:08 40.90536 29.31678 321 ft 2 kts 72°
2026-05-05 11:08 40.90533 29.31668 321 ft 1 kts 62°
2026-05-05 11:08 40.90532 29.31663 321 ft 0 kts 63°
2026-05-05 11:11 40.90533 29.31668 321 ft 2 kts 63°
2026-05-05 11:11 40.90540 29.31684 321 ft 4 kts 63°
2026-05-05 11:11 40.90559 29.31736 321 ft 8 kts 63°
2026-05-05 11:11 40.90587 29.31812 321 ft 9 kts 64°
2026-05-05 11:12 40.90609 29.31886 321 ft 8 kts 88°
2026-05-05 11:12 40.90575 29.31945 321 ft 9 kts 154°
2026-05-05 11:12 40.90515 29.31982 321 ft 9 kts 154°
2026-05-05 11:12 40.90482 29.32044 321 ft 9 kts 89°
2026-05-05 11:13 40.90509 29.32127 321 ft 10 kts 64°
2026-05-05 11:13 40.90543 29.32219 321 ft 11 kts 63°
2026-05-05 11:13 40.90578 29.32314 321 ft 7 kts 64°
2026-05-05 11:13 40.90586 29.32387 321 ft 9 kts 97°
2026-05-05 11:14 40.90542 29.32446 321 ft 10 kts 153°
2026-05-05 11:14 40.90476 29.32488 321 ft 11 kts 155°
2026-05-05 11:14 40.90399 29.32536 321 ft 13 kts 155°
2026-05-05 11:14 40.90319 29.32580 321 ft 9 kts 173°
2026-05-05 11:15 40.90270 29.32534 321 ft 10 kts 244°
2026-05-05 11:15 40.90239 29.32447 321 ft 10 kts 244°
2026-05-05 11:15 40.90206 29.32355 321 ft 11 kts 244°
2026-05-05 11:15 40.90168 29.32249 321 ft 13 kts 244°
2026-05-05 11:16 40.90126 29.32133 321 ft 14 kts 245°
2026-05-05 11:16 40.90087 29.32066 321 ft 8 kts 178°
2026-05-05 11:16 40.90024 29.32102 321 ft 10 kts 154°
2026-05-05 11:16 40.89951 29.32148 321 ft 13 kts 154°
2026-05-05 11:17 40.89859 29.32205 321 ft 16 kts 155°
2026-05-05 11:17 40.89751 29.32274 321 ft 17 kts 154°
2026-05-05 11:17 40.89640 29.32344 321 ft 15 kts 153°
2026-05-05 11:17 40.89579 29.32373 321 ft 6 kts 196°
2026-05-05 11:18 40.89537 29.32352 321 ft 7 kts 161°
2026-05-05 11:18 40.89489 29.32393 321 ft 9 kts 117°
2026-05-05 11:18 40.89514 29.32491 321 ft 13 kts 63°
2026-05-05 11:18 40.89563 29.32623 321 ft 18 kts 63°
2026-05-05 11:19 40.89624 29.32787 321 ft 21 kts 64°
2026-05-05 11:19 40.89691 29.32970 321 ft 22 kts 64°
2026-05-05 11:19 40.89758 29.33151 321 ft 21 kts 64°
2026-05-05 11:19 40.89823 29.33331 321 ft 21 kts 63°
2026-05-05 11:20 40.89889 29.33509 321 ft 21 kts 64°
2026-05-05 11:20 40.89952 29.33681 321 ft 15 kts 59°
2026-05-05 11:20 40.89998 29.33805 321 ft 11 kts 64°
2026-05-05 11:20 40.90009 29.33893 321 ft 10 kts 116°
2026-05-05 11:21 40.89947 29.33946 321 ft 10 kts 152°
2026-05-05 11:21 40.89880 29.33991 321 ft 7 kts 158°
2026-05-05 11:21 40.89844 29.33952 321 ft 8 kts 244°
2026-05-05 11:21 40.89774 29.33759 321 ft 58 kts 244°
2026-05-05 11:22 40.89487 29.32981 321 ft 125 kts 244°
2026-05-05 11:22 40.89045 29.31788 577 ft 153 kts 244°
2026-05-05 11:22 40.88591 29.30525 1179 ft 157 kts 245°
2026-05-05 11:22 40.88028 29.29267 1742 ft 168 kts 230°
2026-05-05 11:23 40.87058 29.28262 2232 ft 187 kts 208°
2026-05-05 11:23 40.85767 29.27893 2750 ft 207 kts 174°
2026-05-05 11:23 40.84358 29.28661 3262 ft 229 kts 154°
2026-05-05 11:23 40.82893 29.29547 4015 ft 237 kts 161°
2026-05-05 11:24 40.81311 29.30348 4624 ft 255 kts 160°
2026-05-05 11:24 40.79585 29.31168 5270 ft 271 kts 161°
2026-05-05 11:24 40.77778 29.31987 6108 ft 279 kts 161°
2026-05-05 11:24 40.75949 29.32792 6966 ft 282 kts 162°
2026-05-05 11:25 40.74079 29.33590 7800 ft 286 kts 162°
2026-05-05 11:25 40.72204 29.34390 8627 ft 289 kts 161°
2026-05-05 11:25 40.70283 29.35222 9398 ft 293 kts 161°
2026-05-05 11:25 40.68352 29.36097 10190 ft 297 kts 161°
2026-05-05 11:26 40.66361 29.36991 10702 ft 312 kts 161°
2026-05-05 11:26 40.64279 29.37909 11247 ft 324 kts 161°
2026-05-05 11:26 40.62081 29.38927 11661 ft 341 kts 159°
2026-05-05 11:26 40.59841 29.40017 12248 ft 350 kts 160°
2026-05-05 11:27 40.57516 29.41087 12929 ft 357 kts 160°
2026-05-05 11:27 40.55150 29.42166 13634 ft 363 kts 160°
2026-05-05 11:27 40.52771 29.43247 14369 ft 368 kts 160°
2026-05-05 11:27 40.50313 29.44362 15021 ft 374 kts 160°
2026-05-05 11:28 40.47866 29.45475 15698 ft 378 kts 159°
2026-05-05 11:28 40.45382 29.46608 16382 ft 381 kts 159°
2026-05-05 11:28 40.42847 29.47756 17076 ft 384 kts 159°
2026-05-05 11:28 40.40327 29.48888 17733 ft 386 kts 159°
2026-05-05 11:29 40.37798 29.50027 18350 ft 390 kts 159°
2026-05-05 11:29 40.35234 29.51184 18951 ft 394 kts 160°
2026-05-05 11:29 40.32613 29.52368 19536 ft 398 kts 160°
2026-05-05 11:29 40.29999 29.53546 20090 ft 403 kts 160°
2026-05-05 11:30 40.27331 29.54747 20620 ft 408 kts 160°
2026-05-05 11:30 40.24656 29.55951 21155 ft 412 kts 161°
2026-05-05 11:30 40.21939 29.57171 21648 ft 417 kts 161°
2026-05-05 11:30 40.19153 29.58422 22148 ft 422 kts 161°
2026-05-05 11:31 40.16405 29.59654 22682 ft 425 kts 161°
2026-05-05 11:31 40.13586 29.60916 23198 ft 429 kts 161°
2026-05-05 11:31 40.10741 29.62188 23676 ft 433 kts 161°
2026-05-05 11:31 40.07907 29.63455 24170 ft 437 kts 161°
2026-05-05 11:32 40.05009 29.64749 24675 ft 440 kts 161°
2026-05-05 11:32 40.02112 29.66043 25164 ft 442 kts 162°
2026-05-05 11:32 39.99175 29.67353 25640 ft 445 kts 162°
2026-05-05 11:32 39.96249 29.68657 26075 ft 448 kts 162°
2026-05-05 11:33 39.93315 29.69964 26501 ft 451 kts 162°
2026-05-05 11:33 39.90305 29.71310 26915 ft 455 kts 161°
2026-05-05 11:33 39.87369 29.72796 27319 ft 458 kts 158°
2026-05-05 11:33 39.84453 29.74432 27722 ft 460 kts 157°
2026-05-05 11:34 39.81509 29.76099 28117 ft 462 kts 157°
2026-05-05 11:34 39.78568 29.77765 28628 ft 461 kts 157°
2026-05-05 11:34 39.75636 29.79422 29178 ft 459 kts 157°
2026-05-05 11:34 39.72717 29.81071 29669 ft 459 kts 157°
2026-05-05 11:35 39.69798 29.82715 30061 ft 460 kts 157°
2026-05-05 11:35 39.66832 29.84383 30450 ft 462 kts 157°
2026-05-05 11:35 39.63909 29.86025 30800 ft 463 kts 157°
2026-05-05 11:35 39.60928 29.87699 31009 ft 466 kts 157°
2026-05-05 11:36 39.57991 29.89347 31016 ft 466 kts 157°
2026-05-05 11:36 39.52011 29.92696 31016 ft 467 kts 157°
2026-05-05 11:37 39.46068 29.96049 31022 ft 468 kts 157°
2026-05-05 11:37 39.40108 29.99420 31011 ft 468 kts 156°
2026-05-05 11:38 39.34158 30.02778 31015 ft 470 kts 157°
2026-05-05 11:38 39.28140 30.06169 31012 ft 469 kts 157°
2026-05-05 11:39 39.22166 30.09527 31010 ft 470 kts 157°
2026-05-05 11:39 39.16174 30.12887 31010 ft 472 kts 157°
2026-05-05 11:40 39.11851 30.15257 31013 ft 472 kts 160°
2026-05-05 11:40 39.05547 30.17486 31012 ft 469 kts 172°
2026-05-05 11:41 38.99085 30.18092 31014 ft 466 kts 184°
2026-05-05 11:41 38.92629 30.17844 31017 ft 465 kts 185°
2026-05-05 11:42 38.86140 30.17567 31017 ft 467 kts 185°
2026-05-05 11:42 38.79642 30.17318 31016 ft 468 kts 185°
2026-05-05 11:43 38.73153 30.17081 31009 ft 469 kts 184°
2026-05-05 11:43 38.66624 30.16847 31013 ft 468 kts 184°
2026-05-05 11:44 38.60124 30.16617 31016 ft 469 kts 185°
2026-05-05 11:44 38.53633 30.16387 31021 ft 469 kts 185°
2026-05-05 11:45 38.47101 30.16154 31021 ft 469 kts 185°
2026-05-05 11:45 38.43834 30.16038 30855 ft 471 kts 185°
2026-05-05 11:45 38.40541 30.15920 30208 ft 472 kts 185°
2026-05-05 11:45 38.37254 30.15843 29508 ft 473 kts 181°
2026-05-05 11:46 38.33998 30.16200 28968 ft 474 kts 174°
2026-05-05 11:46 38.30760 30.17099 28496 ft 474 kts 166°
2026-05-05 11:46 38.27660 30.18419 28015 ft 471 kts 161°
2026-05-05 11:46 38.24619 30.19852 27532 ft 468 kts 161°
2026-05-05 11:47 38.21555 30.21303 27044 ft 463 kts 161°
2026-05-05 11:47 38.18565 30.22702 26565 ft 460 kts 161°
2026-05-05 11:47 38.15585 30.24079 26089 ft 456 kts 161°
2026-05-05 11:47 38.12590 30.25455 25612 ft 452 kts 161°
2026-05-05 11:48 38.06817 30.28100 25196 ft 430 kts 161°
2026-05-05 11:48 38.04064 30.29368 25067 ft 418 kts 160°
2026-05-05 11:48 38.01439 30.30905 24902 ft 408 kts 151°
2026-05-05 11:49 37.99102 30.32828 24915 ft 404 kts 143°
2026-05-05 11:49 37.96869 30.35021 24941 ft 406 kts 141°
2026-05-05 11:49 37.94690 30.37243 24970 ft 406 kts 140°
2026-05-05 11:49 37.92481 30.39486 24998 ft 407 kts 141°
2026-05-05 11:50 37.90250 30.41720 25026 ft 407 kts 141°
2026-05-05 11:50 37.88015 30.43926 25030 ft 406 kts 143°
2026-05-05 11:50 37.85528 30.45572 25014 ft 403 kts 167°
2026-05-05 11:50 37.82783 30.45862 25028 ft 393 kts 193°
2026-05-05 11:51 37.80289 30.44794 25037 ft 378 kts 218°
2026-05-05 11:51 37.78212 30.42845 25045 ft 371 kts 226°
2026-05-05 11:51 37.76219 30.40758 25036 ft 371 kts 225°
2026-05-05 11:51 37.74164 30.38772 25036 ft 373 kts 223°
2026-05-05 11:52 37.72054 30.36882 25032 ft 374 kts 221°
2026-05-05 11:52 37.69909 30.35033 25026 ft 374 kts 220°
2026-05-05 11:52 37.67743 30.33190 25020 ft 374 kts 220°
2026-05-05 11:52 37.65587 30.31362 25015 ft 374 kts 220°
2026-05-05 11:53 37.63417 30.29524 25012 ft 373 kts 219°
2026-05-05 11:53 37.61116 30.27978 25006 ft 381 kts 207°
2026-05-05 11:53 37.58545 30.27061 25002 ft 390 kts 194°
2026-05-05 11:53 37.55831 30.26629 25007 ft 392 kts 191°
2026-05-05 11:54 37.53109 30.26298 25006 ft 393 kts 190°
2026-05-05 11:54 37.50395 30.25969 25002 ft 392 kts 191°
2026-05-05 11:54 37.47708 30.25621 24996 ft 393 kts 191°
2026-05-05 11:54 37.44971 30.25251 24993 ft 392 kts 191°
2026-05-05 11:55 37.42263 30.24879 24994 ft 392 kts 191°
2026-05-05 11:55 37.39562 30.24506 24996 ft 392 kts 191°
2026-05-05 11:55 37.36862 30.24134 24998 ft 391 kts 191°
2026-05-05 11:55 37.34165 30.23762 24999 ft 391 kts 191°
2026-05-05 11:56 37.31450 30.23390 25000 ft 391 kts 191°
2026-05-05 11:56 37.28742 30.23019 24999 ft 391 kts 191°
2026-05-05 11:56 37.26037 30.22647 24994 ft 392 kts 191°
2026-05-05 11:56 37.23320 30.22275 24991 ft 391 kts 191°
2026-05-05 11:57 37.20631 30.22002 24957 ft 393 kts 182°
2026-05-05 11:57 37.17911 30.22611 24657 ft 397 kts 164°
2026-05-05 11:57 37.15390 30.23939 24192 ft 398 kts 153°
2026-05-05 11:57 37.13028 30.25763 23699 ft 398 kts 146°
2026-05-05 11:58 37.10770 30.27763 23230 ft 397 kts 145°
2026-05-05 11:58 37.08495 30.29720 22808 ft 395 kts 147°
2026-05-05 11:58 37.06204 30.31608 22415 ft 392 kts 148°
2026-05-05 11:58 37.03937 30.33419 22026 ft 389 kts 148°
2026-05-05 11:59 37.01671 30.35211 21652 ft 386 kts 148°
2026-05-05 11:59 36.99393 30.37010 21245 ft 381 kts 148°
2026-05-05 11:59 36.97165 30.38772 20603 ft 376 kts 147°
2026-05-05 11:59 36.94971 30.40508 19888 ft 372 kts 147°
2026-05-05 12:00 36.92798 30.42227 19188 ft 367 kts 147°
2026-05-05 12:00 36.90689 30.43894 18483 ft 363 kts 147°
2026-05-05 12:00 36.88551 30.45583 17875 ft 354 kts 147°
2026-05-05 12:00 36.86520 30.47187 17522 ft 344 kts 146°
2026-05-05 12:01 36.84525 30.48763 17383 ft 329 kts 146°
2026-05-05 12:01 36.82643 30.50248 17246 ft 316 kts 146°
2026-05-05 12:01 36.80816 30.51690 17130 ft 304 kts 146°
2026-05-05 12:01 36.79078 30.53059 16978 ft 287 kts 146°
2026-05-05 12:02 36.77416 30.54369 16691 ft 274 kts 146°
2026-05-05 12:02 36.75865 30.55590 16369 ft 264 kts 146°
2026-05-05 12:02 36.74309 30.56815 15668 ft 269 kts 146°
2026-05-05 12:02 36.72721 30.58065 15069 ft 267 kts 146°
2026-05-05 12:03 36.71169 30.59283 14533 ft 263 kts 146°
2026-05-05 12:03 36.69645 30.60472 14012 ft 259 kts 146°
2026-05-05 12:03 36.68125 30.61653 13491 ft 254 kts 146°
2026-05-05 12:03 36.66652 30.62794 12992 ft 249 kts 146°
2026-05-05 12:04 36.65182 30.63937 12500 ft 244 kts 146°
2026-05-05 12:04 36.63853 30.65169 12017 ft 237 kts 129°
2026-05-05 12:04 36.63112 30.66929 11503 ft 230 kts 105°
2026-05-05 12:04 36.62674 30.68818 10961 ft 225 kts 103°
2026-05-05 12:05 36.62268 30.70691 10375 ft 225 kts 100°
2026-05-05 12:05 36.62339 30.72550 9826 ft 217 kts 65°
2026-05-05 12:05 36.63271 30.73947 9293 ft 209 kts 31°
2026-05-05 12:05 36.64586 30.74611 8818 ft 206 kts 17°
2026-05-05 12:06 36.65950 30.75167 8323 ft 206 kts 18°
2026-05-05 12:06 36.67310 30.75734 7766 ft 206 kts 19°
2026-05-05 12:06 36.68660 30.76313 7190 ft 206 kts 19°
2026-05-05 12:06 36.69996 30.76895 6563 ft 205 kts 20°
2026-05-05 12:07 36.71300 30.77467 6145 ft 193 kts 19°
2026-05-05 12:07 36.72527 30.78006 5715 ft 185 kts 19°
2026-05-05 12:07 36.73730 30.78531 5139 ft 185 kts 20°
2026-05-05 12:07 36.74966 30.78914 4630 ft 180 kts
2026-05-05 12:08 36.76206 30.79125 4001 ft 182 kts
2026-05-05 12:08 36.77462 30.79302 3420 ft 180 kts
2026-05-05 12:08 36.78692 30.79469 2859 ft 178 kts
2026-05-05 12:08 36.79896 30.79622 2335 ft 176 kts
2026-05-05 12:09 36.81121 30.79776 1751 ft 177 kts
2026-05-05 12:09 36.82340 30.79930 1201 ft 175 kts
2026-05-05 12:09 36.83485 30.80080 998 ft 157 kts
2026-05-05 12:09 36.84586 30.80155 1280 ft 160 kts 358°
2026-05-05 12:10 36.85709 30.79993 1568 ft 167 kts 357°
2026-05-05 12:10 36.86865 30.80150 1993 ft 167 kts
2026-05-05 12:10 36.88085 30.80185 2203 ft 182 kts 358°
2026-05-05 12:10 36.89354 30.80141 2546 ft 181 kts 358°
2026-05-05 12:11 36.90604 30.80351 2529 ft 180 kts 16°
2026-05-05 12:11 36.91758 30.80991 2514 ft 181 kts 26°
2026-05-05 12:11 36.92821 30.81842 2505 ft 182 kts 34°
2026-05-05 12:11 36.93825 30.82815 2498 ft 182 kts 35°
2026-05-05 12:12 36.94814 30.83769 2493 ft 181 kts 34°
2026-05-05 12:12 36.95745 30.84844 2486 ft 191 kts 54°
2026-05-05 12:12 36.96085 30.86526 2476 ft 215 kts 93°
2026-05-05 12:12 36.95475 30.88259 2428 ft 228 kts 136°
2026-05-05 12:13 36.94072 30.89119 2465 ft 229 kts 178°
2026-05-05 12:13 36.92568 30.88643 2481 ft 225 kts 220°
2026-05-05 12:13 36.91692 30.87087 2488 ft 219 kts 261°
2026-05-05 12:13 36.91658 30.85210 2499 ft 217 kts 276°
2026-05-05 12:14 36.91740 30.83333 2485 ft 217 kts 273°
2026-05-05 12:14 36.91370 30.81499 2432 ft 223 kts 236°
2026-05-05 12:14 36.90092 30.80431 2420 ft 228 kts 193°
2026-05-05 12:14 36.88518 30.80262 2487 ft 229 kts 182°
2026-05-05 12:15 36.86901 30.80240 2502 ft 230 kts 183°
2026-05-05 12:15 36.85298 30.80157 2474 ft 228 kts 185°
2026-05-05 12:15 36.83730 30.80011 2473 ft 225 kts 186°
2026-05-05 12:15 36.82174 30.79837 2492 ft 228 kts 187°
2026-05-05 12:16 36.80573 30.79641 2503 ft 234 kts 187°
2026-05-05 12:16 36.78936 30.79426 2484 ft 234 kts 187°
2026-05-05 12:16 36.77319 30.79219 2479 ft 230 kts 187°
2026-05-05 12:16 36.75735 30.79021 2473 ft 229 kts 187°
2026-05-05 12:17 36.74136 30.78839 2471 ft 229 kts 187°